Location: Unspecified
(42.9300°N, 71.1866°W)
Time: 10:22:36
(UTC-04:00)

Envisat - Visible Passes

Search period start: 28 March 2015 00:00
Search period end: 07 April 2015 00:00
Orbit: 765 x 766 km, 98.3° (Epoch: 28 March)

Date Brightness Start Highest point End Pass type
(mag) Time Alt. Az. Time Alt. Az. Time Alt. Az.
28 Mar 3.2 21:35:59 57° NE 21:35:59 57° NE 21:40:22 10° N visible
28 Mar 5.6 23:16:11 14° WNW 23:16:11 14° WNW 23:17:50 10° NW visible
29 Mar 3.9 20:58:50 30° ENE 20:58:53 30° ENE 21:03:19 10° N visible
29 Mar 4.6 22:39:02 30° WNW 22:39:02 30° WNW 22:42:28 10° NNW visible
30 Mar 4.7 20:21:40 14° ENE 20:22:38 15° ENE 20:25:33 10° NNE visible
30 Mar 3.4 22:01:53 62° NW 22:01:53 62° NW 22:06:13 10° NNW visible
31 Mar 3.2 21:24:44 50° ENE 21:24:44 50° ENE 21:29:29 10° N visible
31 Mar 5.2 23:04:56 19° WNW 23:04:56 19° WNW 23:07:33 10° NW visible
01 Apr 4.1 20:47:35 24° ENE 20:48:11 25° ENE 20:52:17 10° NNE visible
01 Apr 4.1 22:27:48 40° WNW 22:27:48 40° WNW 22:31:50 10° NNW visible
02 Apr 4.9 20:10:27 11° ENE 20:11:58 12° ENE 20:14:02 10° NE visible
02 Apr 3.0 21:50:39 78° N 21:50:39 78° N 21:55:26 10° NNW visible
02 Apr 5.8 23:30:51 11° WNW 23:30:51 11° WNW 23:31:22 10° WNW visible
03 Apr 3.5 21:13:30 40° E 21:13:48 41° ENE 21:18:34 10° N visible
03 Apr 4.9 22:53:42 24° W 22:53:42 24° W 22:57:07 10° NW visible
04 Apr 4.4 20:36:21 19° E 20:37:29 20° ENE 20:41:11 10° NNE visible
04 Apr 3.6 22:16:34 52° W 22:16:34 52° W 22:21:09 10° NNW visible
05 Apr 2.9 21:39:25 70° E 21:39:31 70° ENE 21:44:36 10° N visible
05 Apr 5.5 23:19:37 14° W 23:19:37 14° W 23:21:44 10° WNW visible
06 Apr 3.8 21:02:16 31° E 21:03:04 33° ENE 21:07:37 10° N visible
06 Apr 4.5 22:42:29 31° W 22:42:29 31° W 22:46:35 10° NNW visible
